Reflectivity
31 36 30 29 28 13 -1 -7 0 9 1 -7 -18 -20 -20 -20 -19 -20 -20 -20 -20 -20 -20 -20 -20 -20 -20 -20 -20 -20 -20 -20
25 28 35 21 12 12 -0 -20 1 -7 7 6 -17 -20 -20 -20 -20 -20 -20 -20 -20 -20 -20 -20 -20 -20 -20 -20 -20 -20 -20 -20
33 32 32 10 -0 6 13 4 9 9 6 -8 -20 -20 -20 -20 -20 -20 -20 -20 -20 -20 -20 -20 -20 -20 -20 -20 -20 -20 -20 -20
28 37 22 14 16 9 12 7 -11 -11 -12 -20 -20 -17 -19 -20 -20 -20 -20 -20 -20 -20 -20 -20 -20 -20 -20 -20 -20 -20 -20 -20
30 32 14 20 10 4 2 -3 2 -8 -8 -20 -20 -20 -20 -20 -20 -20 -20 -20 -20 -20 -20 -20 -20 -20 -20 -20 -20 -20 -20 -20
35 3 10 12 6 -3 -13 -18 -20 -20 -20 -20 -20 -20 -20 -20 -20 -20 -20 -20 -20 -20 -20 -20 -20 -20 -20 -20 -20 -20 -20 -20
2 -18 -20 -18 -14 -14 -17 -11 -20 -20 -20 -20 -20 -20 -20 -20 -20 -20 -20 -20 -20 -20 -20 -20 -20 -20 -20 -20 -20 -20 -20 -20
9 2 -0 -6 -20 -20 -20 -20 -20 -20 -20 -20 -20 -20 -20 -20 -20 -20 -20 -20 -20 -20 -20 -20 -20 -20 -20 -20 -20 -20 -20 -20
-17 -11 -20 -20 -20 -20 -20 -20 -20 -20 -20 -20 -20 -20 -20 -20 -20 -20 -20 -20 -20 -20 -20 -20 -20 -20 -20 -20 -20 -20 -20 -20
6 10 -19 -20 -20 -20 -20 -20 -20 -20 -20 -20 -20 -20 -20 -20 -20 -20 -20 -20 -20 -20 -20 -20 -20 -20 -20 -20 -20 -20 -20 -20
-20 -20 -20 -20 -20 -20 -20 -20 -20 -20 -20 -20 -20 -20 -20 -20 -20 -20 -20 -20 -20 -20 -20 -20 -20 -20 -20 -20 -20 -20 -20 -20
-20 -20 -20 -20 -20 -20 -20 -20 -20 -20 -20 -20 -20 -20 -20 -20 -20 -20 -20 -20 -20 -20 -20 -20 -20 -20 -20 -20 -20 -20 -20 -20
-20 -20 -20 -20 -20 -20 -20 -20 -20 -20 -20 -20 -20 -20 -20 -20 -20 -20 -20 -20 -20 -20 -20 -20 -20 -20 -20 -20 -20 -20 -20 -20
-20 -20 -20 -20 -20 -20 -20 -20 -20 -20 -20 -20 -20 -20 -20 -20 -20 -20 -20 -20 -20 -20 -20 -20 -20 -20 -20 -20 -20 -20 -20 -20
-20 -20 -20 -20 -20 -20 -20 -20 -20 -20 -20 -20 -20 -20 -20 -20 -20 -20 -20 -20 -20 -20 -20 -20 -20 -20 -20 -20 -20 -20 -20 -20
-20 -20 25 -20 -20 -20 -20 -20 -20 -20 -20 -20 -20 -20 -20 -20 -20 -20 -20 -20 -20 -20 -20 -20 -20 -20 -20 -20 -20 -20 -20 -20
-15 16 -20 -20 -20 -20 -20 -20 -20 -20 -20 -20 -20 -20 -20 -20 -20 -20 -20 -20 -20 -20 -20 -20 -20 -20 -20 -20 -20 -20 -20 -20
-16 -20 -20 -20 -20 -20 -20 -20 -20 -20 -20 -20 -20 -17 -4 1 -20 -13 -20 -20 -20 -20 -20 -20 -20 -20 -20 -20 -20 -20 -20 -20
-20 -20 -20 -20 -20 -20 -20 -20 -20 -20 -20 -20 -13 11 -1 -20 4 31 -20 -20 -20 -20 -20 -20 -20 -20 -20 -20 -20 -20 -20 -20
-20 -20 -20 -20 -20 -20 -20 -20 -20 -20 -20 14 23 9 18 7 25 -20 -20 -20 -20 -20 -20 -20 -20 -20 -20 -20 -20 -20 -20 -20
Wind_Speed
10 11 16 16 14 13 13 13 12 12 13 14 13 13 13 13 12 10 10 8 6 5 8 9 9 10 10 11 11 10 7 4
16 11 9 8 9 11 12 13 11 11 12 11 11 11 12 10 9 8 8 5 3 5 7 7 8 9 9 9 11 10 6 5
15 11 7 6 6 9 12 13 12 9 9 8 6 4 6 6 6 6 5 3 3 8 8 9 9 9 9 9 9 4 5 3
7 10 10 8 7 6 5 6 4 4 5 5 3 4 4 3 5 5 5 6 7 6 8 9 9 5 4 7 3 4 3 2
9 10 8 6 6 4 3 3 3 2 5 4 2 2 3 3 3 3 3 4 3 7 6 5 7 5 5 5 5 6 4 3
3 8 6 5 4 5 4 3 3 3 3 6 5 3 4 3 4 5 4 3 6 5 4 5 7 6 6 6 7 5 4 3
7 8 6 5 5 4 4 4 4 4 4 5 4 4 5 5 4 4 4 3 4 5 4 5 6 6 6 6 7 6 6 4
8 9 6 7 5 7 5 4 4 4 4 5 7 6 6 5 4 4 4 4 4 5 5 5 4 5 7 6 6 5 6 6
7 8 9 10 9 6 4 4 4 5 4 6 7 6 6 6 4 4 4 4 6 5 6 6 6 5 6 5 6 7 7 8
8 9 9 10 8 5 4 4 4 4 4 4 6 7 7 5 5 4 4 4 4 5 4 4 4 4 3 4 4 5 6 6
9 10 10 9 8 6 5 6 4 4 4 4 6 6 6 5 5 4 5 5 5 3 4 3 3 3 2 4 4 4 5 5
12 10 10 8 7 6 4 4 3 3 4 4 5 4 6 6 5 5 5 4 4 3 2 2 2 0 1 3 3 2 4 4
13 13 11 10 6 4 3 4 2 2 3 5 5 5 7 6 5 5 4 5 4 3 2 2 1 1 2 2 3 2 3 2
10 12 12 8 6 3 4 4 2 3 3 4 6 7 7 6 6 5 5 5 4 3 2 1 1 1 2 1 3 4 3 3
11 12 10 7 6 4 4 4 4 3 2 3 4 7 6 7 6 6 5 4 4 3 3 3 1 1 1 3 2 3 3 2
10 9 9 6 6 5 7 5 5 4 4 3 4 7 7 7 6 5 4 2 3 2 2 2 3 2 1 2 2 4 2 4
9 7 6 6 8 7 8 5 3 3 3 6 4 3 2 4 4 4 4 4 4 4 3 2 1 2 3 2 1 1 2 3
7 8 8 7 7 7 8 9 7 6 4 4 4 3 5 5 7 5 4 5 4 3 2 2 3 3 2 3 4 3 3 3
8 8 6 6 8 8 8 8 7 8 6 4 6 4 3 6 6 3 3 3 2 1 2 2 2 3 4 4 3 3 2 3
9 9 8 7 10 9 8 8 5 5 6 5 4 4 5 6 5 4 3 2 2 4 3 3 3 2 3 3 3 4 3 3
Wind_Direction
116 124 128 116 121 129 126 123 125 127 129 133 137 135 130 133 131 135 127 121 117 106 69 47 26 22 41 34 47 86 98 88
144 128 113 133 132 133 127 124 135 144 143 141 141 142 135 128 134 127 116 107 96 63 55 44 27 9 32 33 70 65 94 88
131 135 138 131 133 143 137 141 144 151 135 137 124 118 107 120 118 100 87 75 19 23 22 24 11 19 58 54 60 66 107 88
154 158 151 158 156 142 130 124 140 144 137 144 89 107 108 98 80 77 43 19 13 15 13 34 46 23 33 38 28 79 78 95
182 149 166 169 142 133 121 134 135 115 112 116 131 134 93 94 63 62 40 55 42 60 61 51 50 39 31 33 30 21 21 24
203 146 173 160 146 154 143 114 116 128 123 135 128 87 79 75 76 76 75 48 73 64 57 54 48 45 43 35 38 37 24 13
174 172 163 145 115 104 89 121 108 128 127 108 118 118 104 88 78 84 80 78 79 70 62 59 45 41 37 36 41 26 13 5
165 163 132 124 110 118 128 122 121 97 91 100 90 102 105 102 95 90 85 84 81 80 69 61 46 37 28 25 30 20 14 7
157 132 134 126 123 122 102 111 118 106 101 96 102 107 110 118 119 89 82 77 75 65 53 48 42 24 33 23 17 10 17 15
142 146 134 124 125 111 107 99 100 96 93 98 108 110 116 109 104 95 111 101 83 64 53 55 51 37 19 15 10 21 16 23
135 132 141 127 119 107 103 108 95 106 119 116 120 116 117 108 95 82 87 71 67 81 54 92 63 20 57 16 356 22 28 31
145 145 134 129 120 113 88 92 111 117 117 125 126 125 115 92 86 88 94 86 76 76 109 70 129 123 44 359 307 332 68 47
158 152 156 146 136 130 120 134 141 133 156 140 127 120 103 106 106 105 103 95 124 156 147 107 44 23 58 327 322 318 84 120
159 163 164 163 152 140 139 138 179 153 152 160 140 126 132 130 139 137 132 129 136 125 132 146 253 69 126 112 337 331 328 349
167 168 165 169 156 116 75 80 76 97 152 141 159 139 142 141 144 154 156 148 162 177 162 155 181 316 124 140 343 260 323 308
161 169 184 172 155 148 156 156 165 182 168 162 160 160 165 160 169 158 153 121 76 37 116 157 145 223 313 202 193 171 236 316
177 187 187 179 180 177 173 163 161 134 136 153 171 166 158 70 84 90 100 88 81 58 30 10 206 188 192 224 268 190 195 207
172 168 197 191 179 175 167 155 142 131 134 136 99 94 98 71 81 66 75 67 52 41 45 330 285 253 234 211 195 193 209 231
160 164 166 152 134 129 134 124 124 127 139 140 132 106 59 71 56 49 57 68 68 51 21 358 313 242 232 229 216 217 197 221
155 144 130 129 120 115 112 116 112 103 100 68 56 117 143 136 162 138 120 97 41 33 26 347 323 317 278 241 246 235 203 204